Regional Weather Roundup
Issued by NWS

Home | Current Version | Previous Version | Graphics & Text | Print | Product List | Glossary On
Versions: 1 2 3 4 5 6 7 8 9 10 11 12 13 14 15 16 17 18 19 20 21 22 23 24 25 26 27 28 29 30 31 32 33 34 35 36 37 38 39 40 41 42 43 44 45 46 47 48 49 50
000
ASUS43 KFSD 280402
RWRSD

WEATHER ROUNDUP FOR SOUTH DAKOTA
NATIONAL WEATHER SERVICE SIOUX FALLS SD
1100 PM CDT WED JUL 27 2016

NOTE: "FAIR" INDICATES FEW OR NO CLOUDS BELOW 12,000 FEET WITH NO
SIGNIFICANT WEATHER AND/OR OBSTRUCTIONS TO VISIBILITY.


SDZ001>005-009-010-012>017-280500-
NORTHWEST AND NORTH CENTRAL SOUTH DAKOTA

CITY           SKY/WX    TMP DP  RH WIND       PRES   REMARKS
BUFFALO          N/A     66  58  75 NE8       30.12R
FAITH            N/A     63  58  83 E5        30.14R
MOBRIDGE       PTCLDY    70  59  68 E9        30.09R
$$

SDZ012>016-024>037-041>051-057-063-072>074-280500-
SOUTHWEST AND SOUTH CENTRAL SOUTH DAKOTA

CITY           SKY/WX    TMP DP  RH WIND       PRES   REMARKS
RAPID CTY ARPT CLEAR     65  59  81 E8        30.16R
PIERRE         CLOUDY    67  62  84 CALM      30.09R
CUSTER         CLOUDY    58  56  93 N5        30.28R
ELLSWORTH AFB  CLEAR     68  62  83 E7        30.15S
PHILIP         CLOUDY    62  61  96 W3        30.12R
PINE RIDGE     LGT RAIN  67  65  93 CALM      30.18R
WINNER         FAIR      66  62  87 NW8       30.11R
$$

SDZ004>011-016>023-039-040-280500-
NORTHEAST SOUTH DAKOTA

CITY           SKY/WX    TMP DP  RH WIND       PRES   REMARKS
ABERDEEN       CLOUDY    66  61  84 NE6       30.08R
WATERTOWN      MOCLDY    63  58  83 N6        30.07S
BROOKINGS      MOCLDY    66  60  81 NE3       30.06S
SISSETON         N/A     61  59  93 N7        30.05S
$$

SDZ017-020-022-023-036>040-048>070-280500-
SOUTHEAST SOUTH DAKOTA

CITY           SKY/WX    TMP DP  RH WIND       PRES   REMARKS
SIOUX FALLS    CLOUDY    70  63  78 N7        30.04R
HURON          CLOUDY    70  61  73 NE6       30.05R
CHAMBERLAIN    CLOUDY    73  65  78 N5        30.08R
MITCHELL       MOCLDY    72  63  73 NE7       30.04R
YANKTON        CLOUDY    73  63  68 NE6       30.02R
$$

ABBREVIATIONS USED IN REMARKS
   TC - TEMPERATURE IN CELSIUS
  WCI - WIND CHILL INDEX
   HX - HEAT INDEX
  VSB - VISIBILITY




USA.gov is the U.S. government's official web portal to all federal, state and local government web resources and services.